Location: Dal�� Lhota
(48.7500°N, 14.0167°E)
Time: 02:38:16
(UTC+00:00)

Cosmos 1975 Rocket - Pass Details

Date: 24 September 2020
Orbit: 603 x 634 km, 82.5° (Epoch: 29 October)

Event Time Altitude Azimuth Distance (km) Brightness Sun altitude
Rises 17:33:15 0° 347° (NNW) 2,875 6.8 -6.8°
Reaches altitude 10° 17:35:30 10° 344° (NNW) 1,964 6.0 -7.2°
Maximum altitude 17:39:46 60° 264° (W) 694 3.7 -7.9°
Drops below altitude 10° 17:44:00 10° 185° (S) 1,945 5.6 -8.6°
Sets 17:46:13 0° 182° (S) 2,845 6.4 -8.9°
